| time (UTC) | temp F | wind direction | speed MPH | gust MPH | rain 1hr in | rain 24hr in | rain mn in | humidity % | barometer mb |
| 20260831131006 | 84 | 357 | 1.0 | 3.0 | 0.00 | 0.09 | 0.00 | 79 | 1015.4 |
| 20260831130004 | 81 | 304 | 1.0 | 3.0 | 0.00 | 0.09 | 0.00 | 82 | 1015.2 |
| 20260831125005 | 80 | 257 | 1.0 | 2.0 | 0.00 | 0.09 | 0.00 | 82 | 1015.2 |
| 20260831124006 | 79 | 305 | 1.0 | 3.0 | 0.00 | 0.09 | 0.00 | 81 | 1015.2 |
| 20260831121007 | 77 | 355 | 2.0 | 3.0 | 0.00 | 0.09 | 0.00 | 71 | 1015.1 |
| 20260831120005 | 77 | 339 | 0.0 | 2.0 | 0.00 | 0.09 | 0.00 | 68 | 1014.9 |
| 20260831114006 | 76 | 184 | 0.0 | 1.0 | 0.00 | 0.09 | 0.00 | 68 | 1014.6 |
| 20260831113005 | 76 | 184 | 0.0 | 0.0 | 0.00 | 0.09 | 0.00 | 68 | 1014.7 |
| 20260831112006 | 76 | 184 | 0.0 | 0.0 | 0.00 | 0.09 | 0.00 | 68 | 1014.4 |
| 20260831111005 | 75 | 184 | 0.0 | 0.0 | 0.00 | 0.09 | 0.00 | 68 | 1014.3 |
| 20260831110006 | 75 | 184 | 0.0 | 0.0 | 0.00 | 0.09 | 0.00 | 69 | 1014.1 |
| 20260831105005 | 75 | 184 | 0.0 | 0.0 | 0.00 | 0.09 | 0.00 | 69 | 1013.9 |
| 20260831104007 | 75 | 184 | 0.0 | 0.0 | 0.00 | 0.09 | 0.00 | 69 | 1013.9 |
| 20260831103005 | 75 | 184 | 0.0 | 0.0 | 0.00 | 0.09 | 0.00 | 69 | 1013.8 |
| 20260831102005 | 75 | 184 | 0.0 | 1.0 | 0.00 | 0.09 | 0.00 | 69 | 1013.7 |
| 20260831101005 | 75 | 184 | 0.0 | 0.0 | 0.00 | 0.09 | 0.00 | 70 | 1013.7 |
| 20260831100005 | 75 | 184 | 0.0 | 0.0 | 0.00 | 0.09 | 0.00 | 71 | 1013.7 |
| 20260831095005 | 75 | 184 | 0.0 | 0.0 | 0.00 | 0.09 | 0.00 | 71 | 1013.7 |
| 20260831094005 | 75 | 184 | 0.0 | 1.0 | 0.00 | 0.09 | 0.00 | 71 | 1013.7 |
| 20260831093007 | 75 | 184 | 0.0 | 1.0 | 0.00 | 0.09 | 0.00 | 71 | 1013.6 |
| 20260831090004 | 75 | 184 | 1.0 | 2.0 | 0.00 | 0.09 | 0.00 | 72 | 1013.7 |
| 20260831085005 | 75 | 184 | 0.0 | 1.0 | 0.00 | 0.09 | 0.00 | 74 | 1014.0 |
| 20260831084007 | 75 | 184 | 0.0 | 1.0 | 0.00 | 0.09 | 0.00 | 74 | 1014.0 |
| 20260831081005 | 75 | 32 | 0.0 | 1.0 | 0.00 | 0.09 | 0.00 | 75 | 1013.9 |
| 20260831080005 | 75 | 32 | 1.0 | 2.0 | 0.00 | 0.09 | 0.00 | 76 | 1013.9 |
| 20260831075006 | 75 | 59 | 0.0 | 2.0 | 0.00 | 0.09 | 0.00 | 77 | 1013.9 |
| 20260831074005 | 75 | 148 | 1.0 | 2.0 | 0.00 | 0.09 | 0.00 | 78 | 1013.8 |
| 20260831073005 | 75 | 126 | 1.0 | 2.0 | 0.00 | 0.09 | 0.00 | 78 | 1014.0 |
| 20260831071005 | 75 | 69 | 0.0 | 1.0 | 0.00 | 0.09 | 0.00 | 80 | 1014.1 |
| 20260831070005 | 76 | 73 | 0.0 | 2.0 | 0.00 | 0.09 | 0.00 | 80 | 1014.1 |
| 20260831065005 | 76 | 111 | 0.0 | 2.0 | 0.00 | 0.09 | 0.00 | 79 | 1014.1 |
| 20260831064006 | 76 | 97 | 1.0 | 3.0 | 0.00 | 0.09 | 0.00 | 79 | 1014.1 |
| 20260831063005 | 76 | 77 | 1.0 | 2.0 | 0.00 | 0.09 | 0.00 | 79 | 1014.2 |
| 20260831062005 | 76 | 49 | 0.0 | 7.0 | 0.00 | 0.09 | 0.00 | 80 | 1014.3 |
| 20260831060005 | 76 | 91 | 3.0 | 6.0 | 0.00 | 0.09 | 0.00 | 71 | 1014.5 |
| 20260831055006 | 75 | 119 | 1.0 | 1.0 | 0.00 | 0.09 | 0.00 | 70 | 1014.6 |
| 20260831053005 | 75 | 72 | 1.0 | 2.0 | 0.00 | 0.09 | 0.00 | 72 | 1014.8 |
| 20260831052005 | 75 | 72 | 0.0 | 0.0 | 0.00 | 0.09 | 0.00 | 73 | 1014.9 |
| 20260831051006 | 75 | 72 | 0.0 | 1.0 | 0.00 | 0.09 | 0.00 | 73 | 1014.9 |
| 20260831050005 | 75 | 72 | 0.0 | 1.0 | 0.00 | 0.09 | 0.00 | 74 | 1015.0 |
| 20260831045007 | 75 | 72 | 0.0 | 0.0 | 0.00 | 0.09 | 0.00 | 75 | 1015.1 |
| 20260831044005 | 75 | 72 | 0.0 | 0.0 | 0.00 | 0.09 | 0.00 | 75 | 1015.3 |
| 20260831043005 | 75 | 72 | 0.0 | 1.0 | 0.00 | 0.09 | 0.00 | 75 | 1015.4 |
| 20260831042005 | 75 | 72 | 0.0 | 0.0 | 0.00 | 0.09 | 0.00 | 75 | 1015.5 |
| 20260831040005 | 76 | 72 | 0.0 | 0.0 | 0.00 | 0.09 | 0.00 | 77 | 1015.6 |
| 20260831035005 | 76 | 72 | 0.0 | 1.0 | 0.00 | 0.09 | 0.09 | 77 | 1015.7 |
| 20260831034005 | 76 | 72 | 0.0 | 1.0 | 0.00 | 0.09 | 0.09 | 78 | 1015.6 |
| 20260831033005 | 76 | 72 | 0.0 | 0.0 | 0.00 | 0.09 | 0.09 | 78 | 1015.8 |
| 20260831032006 | 76 | 72 | 0.0 | 1.0 | 0.00 | 0.09 | 0.09 | 77 | 1015.8 |
| 20260831031005 | 76 | 72 | 0.0 | 0.0 | 0.00 | 0.09 | 0.09 | 79 | 1015.7 |
| 20260831030006 | 76 | 72 | 0.0 | 0.0 | 0.00 | 0.09 | 0.09 | 80 | 1015.6 |
| 20260831025006 | 76 | 72 | 0.0 | 1.0 | 0.00 | 0.09 | 0.09 | 82 | 1015.5 |
| 20260831024005 | 76 | 72 | 0.0 | 1.0 | 0.00 | 0.09 | 0.09 | 81 | 1015.4 |
| 20260831022005 | 77 | 72 | 0.0 | 0.0 | 0.00 | 0.09 | 0.09 | 83 | 1015.5 |
| 20260831021006 | 77 | 72 | 0.0 | 0.0 | 0.00 | 0.09 | 0.09 | 83 | 1015.5 |
| 20260831020006 | 77 | 72 | 0.0 | 1.0 | 0.00 | 0.09 | 0.09 | 83 | 1015.6 |
| 20260831015006 | 78 | 72 | 0.0 | 2.0 | 0.00 | 0.09 | 0.09 | 83 | 1015.6 |
| 20260831014005 | 78 | 60 | 0.0 | 3.0 | 0.00 | 0.09 | 0.09 | 83 | 1015.6 |
| 20260831013006 | 78 | 74 | 1.0 | 2.0 | 0.00 | 0.09 | 0.09 | 83 | 1015.6 |
| 20260831012005 | 78 | 91 | 1.0 | 3.0 | 0.00 | 0.09 | 0.09 | 83 | 1015.5 |
| 20260831011005 | 78 | 86 | 1.0 | 3.0 | 0.00 | 0.09 | 0.09 | 83 | 1015.6 |
| 20260831010005 | 78 | 72 | 1.0 | 3.0 | 0.00 | 0.09 | 0.09 | 83 | 1015.6 |
| 20260831005006 | 78 | 75 | 2.0 | 3.0 | 0.00 | 0.09 | 0.09 | 83 | 1015.5 |
| 20260831004005 | 79 | 69 | 2.0 | 3.0 | 0.00 | 0.09 | 0.09 | 82 | 1015.5 |
| 20260831002005 | 79 | 80 | 1.0 | 3.0 | 0.00 | 0.10 | 0.09 | 81 | 1015.3 |
| 20260831001005 | 80 | 38 | 0.0 | 2.0 | 0.00 | 0.10 | 0.09 | 80 | 1015.1 |
| 20260831000005 | 81 | 53 | 0.0 | 1.0 | 0.00 | 0.10 | 0.09 | 78 | 1015.2 |
| 20260830234006 | 82 | 53 | 0.0 | 2.0 | 0.00 | 0.10 | 0.09 | 76 | 1015.0 |
| 20260830233005 | 83 | 40 | 1.0 | 3.0 | 0.00 | 0.10 | 0.09 | 76 | 1014.8 |
| 20260830232006 | 84 | 81 | 1.0 | 3.0 | 0.00 | 0.10 | 0.09 | 74 | 1014.7 |
| 20260830231005 | 84 | 34 | 1.0 | 3.0 | 0.00 | 0.10 | 0.09 | 74 | 1014.5 |
| 20260830230005 | 84 | 73 | 2.0 | 6.0 | 0.00 | 0.10 | 0.09 | 73 | 1014.3 |
| 20260830225005 | 84 | 79 | 2.0 | 5.0 | 0.00 | 0.10 | 0.09 | 75 | 1014.3 |
| 20260830224006 | 84 | 85 | 4.0 | 7.0 | 0.00 | 0.10 | 0.09 | 73 | 1014.4 |
| 20260830223005 | 85 | 106 | 4.0 | 7.0 | 0.00 | 0.10 | 0.09 | 73 | 1014.3 |
| 20260830222005 | 86 | 76 | 3.0 | 6.0 | 0.00 | 0.10 | 0.09 | 71 | 1014.4 |
| 20260830220005 | 87 | 94 | 2.0 | 5.0 | 0.00 | 0.10 | 0.09 | 71 | 1014.2 |
| 20260830215005 | 87 | 127 | 2.0 | 3.0 | 0.00 | 0.10 | 0.09 | 68 | 1014.3 |
| 20260830214005 | 88 | 358 | 1.0 | 3.0 | 0.00 | 0.10 | 0.09 | 68 | 1014.2 |
| 20260830213006 | 88 | 107 | 2.0 | 3.0 | 0.00 | 0.10 | 0.09 | 69 | 1014.3 |
| 20260830212005 | 88 | 2 | 2.0 | 5.0 | 0.00 | 0.10 | 0.09 | 71 | 1014.3 |
| 20260830211005 | 87 | 39 | 1.0 | 5.0 | 0.00 | 0.10 | 0.09 | 75 | 1014.4 |
| 20260830210005 | 86 | 14 | 2.0 | 5.0 | 0.00 | 0.11 | 0.09 | 76 | 1014.4 |
| 20260830203006 | 85 | 57 | 2.0 | 6.0 | 0.00 | 0.14 | 0.09 | 75 | 1014.4 |
| 20260830202006 | 85 | 28 | 2.0 | 3.0 | 0.00 | 0.17 | 0.09 | 75 | 1014.6 |
| 20260830201005 | 84 | 323 | 1.0 | 3.0 | 0.00 | 0.33 | 0.09 | 75 | 1014.9 |
| 20260830200005 | 85 | 355 | 2.0 | 3.0 | 0.00 | 0.56 | 0.09 | 75 | 1015.0 |
| 20260830195006 | 84 | 1 | 2.0 | 3.0 | 0.00 | 0.56 | 0.09 | 77 | 1015.0 |
| 20260830194007 | 84 | 14 | 1.0 | 3.0 | 0.00 | 0.56 | 0.09 | 77 | 1015.1 |
| 20260830193006 | 84 | 2 | 1.0 | 3.0 | 0.00 | 0.56 | 0.09 | 78 | 1015.1 |
| 20260830192006 | 84 | 337 | 0.0 | 3.0 | 0.00 | 0.56 | 0.09 | 78 | 1015.1 |
| 20260830191006 | 83 | 274 | 2.0 | 6.0 | 0.00 | 0.56 | 0.09 | 77 | 1015.1 |
| 20260830190005 | 83 | 341 | 0.0 | 2.0 | 0.00 | 0.56 | 0.09 | 78 | 1015.2 |
| 20260830185007 | 82 | 74 | 0.0 | 2.0 | 0.00 | 0.56 | 0.09 | 80 | 1015.0 |
| 20260830184005 | 81 | 321 | 1.0 | 3.0 | 0.00 | 0.56 | 0.09 | 82 | 1015.2 |
| 20260830183007 | 80 | 123 | 0.0 | 3.0 | 0.00 | 0.56 | 0.09 | 83 | 1015.4 |
| 20260830182007 | 78 | 148 | 1.0 | 3.0 | 0.01 | 0.56 | 0.09 | 80 | 1015.7 |
| 20260830181007 | 77 | 87 | 2.0 | 7.0 | 0.01 | 0.56 | 0.09 | 74 | 1016.0 |
| 20260830180005 | 76 | 92 | 4.0 | 7.0 | 0.02 | 0.56 | 0.09 | 75 | 1016.3 |
| 20260830175006 | 75 | 79 | 4.0 | 9.0 | 0.04 | 0.56 | 0.09 | 76 | 1016.5 |
| 20260830174005 | 75 | 76 | 4.0 | 7.0 | 0.06 | 0.56 | 0.09 | 79 | 1016.5 |
| 20260830173005 | 76 | 82 | 3.0 | 5.0 | 0.09 | 0.56 | 0.09 | 74 | 1016.7 |
| 20260830172006 | 76 | 22 | 1.0 | 3.0 | 0.08 | 0.55 | 0.08 | 73 | 1016.7 |
| 20260830171005 | 76 | 82 | 1.0 | 5.0 | 0.08 | 0.55 | 0.08 | 74 | 1017.1 |
| 20260830170005 | 76 | 99 | 0.0 | 2.0 | 0.07 | 0.54 | 0.07 | 75 | 1017.2 |
| 20260830165006 | 76 | 104 | 0.0 | 2.0 | 0.05 | 0.52 | 0.05 | 76 | 1017.4 |
| 20260830164005 | 76 | 91 | 1.0 | 3.0 | 0.03 | 0.50 | 0.03 | 78 | 1017.5 |
| 20260830163006 | 77 | 114 | 2.0 | 12.0 | 0.00 | 0.47 | 0.00 | 80 | 1017.5 |
| 20260830162005 | 77 | 82 | 5.0 | 14.0 | 0.00 | 0.47 | 0.00 | 83 | 1017.4 |
| 20260830160005 | 82 | 80 | 6.0 | 10.0 | 0.00 | 0.47 | 0.00 | 83 | 1016.6 |
| 20260830155005 | 84 | 94 | 5.0 | 7.0 | 0.00 | 0.47 | 0.00 | 78 | 1016.6 |
| 20260830154006 | 86 | 171 | 0.0 | 3.0 | 0.00 | 0.47 | 0.00 | 75 | 1016.5 |
| 20260830152005 | 85 | 226 | 1.0 | 3.0 | 0.00 | 0.47 | 0.00 | 79 | 1016.6 |
| 20260830151005 | 85 | 239 | 2.0 | 3.0 | 0.00 | 0.47 | 0.00 | 79 | 1016.5 |
| 20260830150005 | 86 | 267 | 3.0 | 6.0 | 0.00 | 0.47 | 0.00 | 76 | 1016.3 |
| 20260830145005 | 88 | 174 | 1.0 | 3.0 | 0.00 | 0.47 | 0.00 | 74 | 1016.3 |
| 20260830144005 | 88 | 223 | 2.0 | 3.0 | 0.00 | 0.47 | 0.00 | 73 | 1016.4 |
| 20260830141006 | 86 | 124 | 2.0 | 3.0 | 0.00 | 0.47 | 0.00 | 80 | 1016.6 |
| 20260830140006 | 83 | 191 | 1.0 | 3.0 | 0.00 | 0.47 | 0.00 | 82 | 1016.7 |
| 20260830135005 | 82 | 278 | 1.0 | 3.0 | 0.00 | 0.47 | 0.00 | 82 | 1016.7 |
| 20260830133005 | 80 | 344 | 1.0 | 3.0 | 0.00 | 0.47 | 0.00 | 66 | 1016.6 |
| 20260830132006 | 80 | 286 | 1.0 | 3.0 | 0.00 | 0.47 | 0.00 | 65 | 1016.5 |